This is the latest recevied weather packets stored in our database for station/object W4OTS. If no packets are shown the sender has not sent any weather packets the latest 10 day(s).
| Time | Temp. | Humidity | Pressure | Rain* | Wind** | Luminosity | Snow |
|---|---|---|---|---|---|---|---|
| 1777824522 | 15.56° C | 47% | 1022 hPa | 0 mm | - | 698 W/m² | - |
| 1777824218 | 15° C | 43% | 1022.1 hPa | 0 mm | - | 625 W/m² | - |
| 1777823914 | 15.56° C | 46% | 1022.2 hPa | 0 mm | - | 621 W/m² | - |
| 1777823611 | 15.56° C | 44% | 1022.4 hPa | 0 mm | - | 626 W/m² | - |
| 1777823308 | 15.56° C | 44% | 1022.3 hPa | 0 mm | - | 632 W/m² | - |
| 1777823006 | 15.56° C | 48% | 1022.4 hPa | 0 mm | - | 732 W/m² | - |
| 1777822704 | 16.67° C | 43% | 1022.6 hPa | 0 mm | - | 759 W/m² | - |
| 1777822402 | 16.11° C | 48% | 1022.5 hPa | 0 mm | - | 792 W/m² | - |
| 1777822099 | 16.11° C | 42% | 1022.4 hPa | 0 mm | - | 770 W/m² | - |
| 1777821797 | 15.56° C | 43% | 1022.5 hPa | 0 mm | - | 764 W/m² | - |
| 1777821493 | 16.11° C | 41% | 1022.3 hPa | 0 mm | - | 796 W/m² | - |
| 1777821191 | 15.56° C | 46% | 1022.5 hPa | 0 mm | - | 835 W/m² | - |
| 1777820888 | 15.56° C | 45% | 1022.6 hPa | 0 mm | - | 853 W/m² | - |
| 1777820583 | 14.44° C | 46% | 1022.4 hPa | 0 mm | - | 802 W/m² | - |
| 1777820280 | 14.44° C | 43% | 1022.6 hPa | 0 mm | - | 788 W/m² | - |
| 1777819978 | 15° C | 44% | 1022.4 hPa | 0 mm | - | 783 W/m² | - |
| 1777819675 | 14.44° C | 48% | 1022.5 hPa | 0 mm | - | 765 W/m² | - |
| 1777819374 | 15° C | 50% | 1022.4 hPa | 0 mm | - | 720 W/m² | - |
| 1777819070 | 14.44° C | 47% | 1022.3 hPa | 0 mm | - | 727 W/m² | - |
| 1777818767 | 13.89° C | 48% | 1022.4 hPa | 0 mm | - | 735 W/m² | - |
| 1777818463 | 13.89° C | 49% | 1022.2 hPa | 0 mm | - | 717 W/m² | - |
| 1777818160 | 13.33° C | 49% | 1022.4 hPa | 0 mm | - | 610 W/m² | - |
| 1777817857 | 13.33° C | 49% | 1022.4 hPa | 0 mm | - | 573 W/m² | - |
| 1777817555 | 13.33° C | 50% | 1022.4 hPa | 0 mm | - | 642 W/m² | - |
| 1777817251 | 13.33° C | 49% | 1022.4 hPa | 0 mm | - | 642 W/m² | - |
* Rain latest hour (hover to see other rain measurements)
** Current wind speed in m/s (hover to see current wind gust speed)